Regional Weather Roundup
Issued by NWS Charleston, WV

Home | Current Version | Previous Version | Text Only | Print | Product List | Glossary Off
Versions: 1 2 3 4 5 6 7 8 9 10 11 12 13 14 15 16 17 18 19 20 21 22 23 24 25 26 27 28 29 30 31 32 33 34 35 36 37 38 39 40 41 42 43 44 45 46 47 48 49 50

000
ASUS41 KRLX 030310
RWRRLX
West Virginia Regional Weather Roundup
National Weather Service Charleston WV
1100 PM EDT THU JUL 02 2015

Note: "fair" indicates few or no clouds below 12,000 feet with no
significant weather and/or obstructions to visibility.

WVZ003-030400-
Northern Panhandle of West Virginia

CITY           SKY/WX    TMP DP  RH WIND       PRES   REMARKS
WHEELING       CLEAR     65  55  70 CALM      29.96R
$$

WVZ009-030400-
Northwest West Virginia

CITY           SKY/WX    TMP DP  RH WIND       PRES   REMARKS
PARKERSBURG    CLOUDY    67  64  90 CALM      29.97R
$$

WVZ006-030400-
Western West Virginia

CITY           SKY/WX    TMP DP  RH WIND       PRES   REMARKS
HUNTINGTON     CLOUDY    68  66  93 CALM      29.92R
$$

WVZ015-030400-
West Central West Virginia

CITY           SKY/WX    TMP DP  RH WIND       PRES   REMARKS
CHARLESTON     MOCLDY    66  64  93 CALM      29.94R FOG
$$

WVZ022-031-030400-
North Central West Virginia

CITY           SKY/WX    TMP DP  RH WIND       PRES   REMARKS
CLARKSBURG     PTCLDY    63  61  93 CALM      29.95S
MORGANTOWN     PTCLDY    63  56  78 S3        29.97R
$$

WVZ025-035-042-045-030400-
Southern West Virginia

CITY           SKY/WX    TMP DP  RH WIND       PRES   REMARKS
BECKLEY        CLOUDY    64  61  90 E3        30.00R FOG
LOGAN          MOCLDY    68  66  94 CALM      29.93R
BLUEFIELD      FOG       64  61  90 SE3       30.02S VSB 1/4
LEWISBURG      CLOUDY    66  63  90 CALM      30.01R FOG
$$

WVZ047-030400-
Northern Mountains of West Virginia

CITY           SKY/WX    TMP DP  RH WIND       PRES   REMARKS
ELKINS         CLEAR     60  57  89 CALM      30.00R FOG
$$

WVZ052-030400-
Eastern Panhandle of West Virginia

CITY           SKY/WX    TMP DP  RH WIND       PRES   REMARKS
MARTINSBURG    PTCLDY    67  64  90 SW3       29.93S FOG
PETERSBURG     CLEAR     62  59  90 CALM      29.97R
$$


USA.gov is the U.S. government's official web portal to all federal, state and local government web resources and services.